DW9882 Weather Reports


Display with metric or nautical units.
time (UTC)temp
F
wind
direction
speed
MPH
gust
MPH
rain 1hr
in
rain 24hr
in
rain mn
in
humidity
%
barometer
mb
20260507164204 63 243 1.0 3.0 0.00 0.54 0.02 34 1017.3
20260507163205 63 250 1.0 3.0 0.00 0.54 0.02 35 1017.3
20260507162704 63 267 0.0 3.0 0.00 0.55 0.02 37 1017.4
20260507162204 62 5 1.0 2.0 0.00 0.55 0.02 37 1017.4
20260507161705 62 5 2.0 5.0 0.00 0.55 0.02 36 1017.5
20260507161205 63 73 1.0 3.0 0.00 0.55 0.02 36 1017.5
20260507160705 63 151 1.0 6.0 0.00 0.55 0.02 36 1017.4
20260507160204 63 208 2.0 6.0 0.00 0.55 0.02 37 1017.4
20260507155705 62 260 2.0 12.0 0.00 0.55 0.02 38 1017.4
20260507155205 62 3 1.0 6.0 0.00 0.55 0.02 39 1017.5
20260507154704 62 282 3.0 8.0 0.00 0.55 0.02 39 1017.5
20260507154205 61 59 2.0 8.0 0.00 0.55 0.02 38 1017.5
20260507153704 61 312 1.0 5.0 0.00 0.55 0.02 40 1017.5
20260507153204 60 308 0.0 3.0 0.00 0.55 0.02 39 1017.5
20260507151705 59 276 2.0 9.0 0.00 0.56 0.02 40 1017.5
20260507151204 58 252 1.0 3.0 0.00 0.56 0.02 41 1017.5
20260507150704 58 258 3.0 9.0 0.00 0.56 0.02 42 1017.6
20260507150205 57 251 4.0 12.0 0.00 0.56 0.02 40 1017.5
20260507145704 57 247 4.0 9.0 0.00 0.56 0.02 42 1017.6
20260507145204 56 275 1.0 3.0 0.00 0.56 0.02 43 1017.5
20260507144704 56 276 3.0 9.0 0.00 0.56 0.02 43 1017.5
20260507143704 55 248 2.0 8.0 0.00 0.56 0.02 45 1017.6
20260507143205 55 289 2.0 6.0 0.00 0.56 0.02 44 1017.6
20260507142204 54 217 1.0 9.0 0.01 0.56 0.02 45 1017.5
20260507141704 54 215 2.0 7.0 0.01 0.56 0.02 46 1017.4
20260507141205 53 274 1.0 7.0 0.01 0.56 0.02 45 1017.4
20260507140705 53 250 2.0 8.0 0.01 0.56 0.02 45 1017.4
20260507140205 52 165 0.0 9.0 0.01 0.56 0.02 46 1017.4
20260507135704 52 266 1.0 16.0 0.01 0.56 0.02 46 1017.4
20260507135204 52 248 2.0 8.0 0.01 0.56 0.02 48 1017.5
20260507134705 51 221 2.0 12.0 0.01 0.56 0.02 47 1017.6
20260507134204 51 230 2.0 10.0 0.01 0.56 0.02 47 1017.5
20260507133704 51 251 4.0 12.0 0.01 0.56 0.02 48 1017.5
20260507133204 50 208 3.0 12.0 0.01 0.56 0.02 48 1017.6
20260507132705 50 15 3.0 12.0 0.00 0.55 0.01 48 1017.5
20260507131704 49 207 2.0 12.0 0.00 0.55 0.01 49 1017.3
20260507131204 49 264 5.0 13.0 0.00 0.55 0.01 49 1017.3
20260507130704 49 282 2.0 12.0 0.00 0.55 0.01 50 1017.4
20260507130205 48 296 4.0 13.0 0.00 0.55 0.01 51 1017.4
20260507125704 48 261 3.0 13.0 0.00 0.55 0.01 51 1017.3
20260507125204 48 269 3.0 10.0 0.00 0.55 0.01 52 1017.3
20260507124204 47 297 3.0 12.0 0.00 0.55 0.01 52 1017.2
20260507123705 47 295 2.0 8.0 0.00 0.55 0.01 53 1017.2
20260507123204 47 227 3.0 12.0 0.01 0.55 0.01 54 1017.2
20260507122204 45 232 2.0 9.0 0.01 0.55 0.01 55 1017.1
20260507121705 44 278 4.0 12.0 0.01 0.55 0.01 57 1017.1
20260507121204 44 277 2.0 9.0 0.01 0.55 0.01 58 1017.2
20260507120704 43 286 2.0 7.0 0.01 0.55 0.01 59 1017.2
20260507120204 43 264 2.0 7.0 0.01 0.55 0.01 61 1017.2
20260507115704 42 243 1.0 7.0 0.01 0.55 0.01 61 1017.1
20260507115204 42 250 1.0 8.0 0.01 0.55 0.01 62 1017.2
20260507114705 42 269 1.0 8.0 0.01 0.55 0.01 61 1017.1
20260507114204 42 182 0.0 0.0 0.01 0.55 0.01 60 1017.2
20260507113704 43 182 0.0 0.0 0.01 0.55 0.01 59 1017.3
20260507112704 43 182 0.0 1.0 0.00 0.54 0.00 59 1017.3
20260507112205 43 182 1.0 2.0 0.00 0.54 0.00 57 1017.3
20260507111704 43 182 1.0 2.0 0.00 0.54 0.00 57 1017.3
20260507111205 43 182 0.0 3.0 0.00 0.54 0.00 57 1017.2
20260507110705 43 173 2.0 6.0 0.00 0.54 0.00 57 1017.0
20260507105705 43 328 1.0 3.0 0.00 0.54 0.00 57 1017.3
20260507105204 43 215 2.0 7.0 0.00 0.54 0.00 57 1017.2
20260507104704 42 175 1.0 3.0 0.00 0.54 0.00 58 1017.2
20260507104204 42 220 1.0 6.0 0.00 0.54 0.00 59 1017.3
20260507103704 42 244 1.0 3.0 0.00 0.54 0.00 59 1017.2
20260507103204 42 200 2.0 6.0 0.00 0.54 0.00 59 1017.3
20260507102704 42 208 1.0 3.0 0.00 0.54 0.00 59 1017.3
20260507102205 41 222 1.0 3.0 0.00 0.54 0.00 60 1017.3
20260507101704 41 232 0.0 6.0 0.00 0.54 0.00 60 1017.4
20260507100704 41 139 0.0 2.0 0.00 0.54 0.00 62 1017.4
20260507100205 41 139 0.0 2.0 0.00 0.54 0.00 61 1017.4
20260507095704 41 139 0.0 3.0 0.00 0.54 0.00 61 1017.4
20260507095204 41 251 1.0 3.0 0.00 0.54 0.00 61 1017.4
20260507094704 41 254 1.0 6.0 0.00 0.54 0.00 60 1017.4
20260507093704 41 193 1.0 9.0 0.00 0.54 0.00 59 1017.4
20260507093205 41 218 2.0 8.0 0.00 0.54 0.00 60 1017.5
20260507092204 40 245 0.0 12.0 0.00 0.54 0.00 61 1017.6
20260507091704 39 202 1.0 6.0 0.00 0.54 0.00 64 1017.6
20260507091204 39 180 2.0 3.0 0.00 0.54 0.00 65 1017.7
20260507090704 39 221 0.0 3.0 0.00 0.54 0.00 65 1017.8
20260507090205 39 229 1.0 5.0 0.00 0.54 0.00 64 1017.7
20260507085204 39 184 1.0 3.0 0.00 0.54 0.00 66 1017.6
20260507084704 39 271 0.0 2.0 0.00 0.54 0.00 65 1017.7
20260507084204 39 271 0.0 0.0 0.00 0.54 0.00 64 1017.7
20260507083204 39 221 0.0 2.0 0.00 0.54 0.00 65 1017.4
20260507082704 39 221 0.0 7.0 0.00 0.54 0.00 65 1017.5
20260507082205 38 187 1.0 7.0 0.00 0.54 0.00 70 1017.7
20260507081705 37 258 1.0 2.0 0.00 0.54 0.00 75 1017.8
20260507081204 37 258 0.0 1.0 0.00 0.54 0.00 79 1017.8
20260507080704 36 258 1.0 8.0 0.00 0.54 0.00 83 1017.9
20260507080204 35 255 3.0 9.0 0.00 0.54 0.00 88 1017.9
20260507075704 34 236 1.0 5.0 0.00 0.54 0.00 91 1018.0
20260507075203 34 269 2.0 8.0 0.00 0.54 0.00 92 1018.1
20260507074704 32 248 3.0 8.0 0.00 0.54 0.00 93 1018.1
20260507074205 32 241 1.0 5.0 0.00 0.54 0.00 93 1018.1
20260507073705 31 237 1.0 5.0 0.00 0.54 0.00 93 1018.2
20260507073205 31 285 0.0 2.0 0.00 0.54 0.00 93 1018.2
20260507072704 30 211 0.0 3.0 0.00 0.54 0.00 93 1018.4
20260507072204 30 203 0.0 2.0 0.00 0.54 0.00 93 1018.3
20260507071704 30 203 0.0 1.0 0.00 0.54 0.00 93 1018.4
20260507071204 30 203 0.0 2.0 0.00 0.54 0.00 93 1018.5
20260507070204 30 203 0.0 0.0 0.00 0.54 0.00 92 1018.6
20260507065704 30 203 0.0 1.0 0.00 0.54 0.00 92 1018.5
20260507065204 30 203 0.0 0.0 0.00 0.54 0.00 92 1018.5
20260507064703 30 203 0.0 0.0 0.00 0.54 0.00 92 1018.5
20260507064204 30 203 0.0 0.0 0.00 0.54 0.00 92 1018.5
20260507063704 30 203 0.0 0.0 0.00 0.54 0.00 92 1018.6
20260507063204 30 203 0.0 0.0 0.00 0.54 0.00 92 1018.6
20260507062704 30 203 0.0 1.0 0.00 0.54 0.00 92 1018.5
20260507062204 30 203 0.0 0.0 0.00 0.54 0.00 92 1018.5
20260507061704 30 203 0.0 0.0 0.00 0.54 0.00 92 1018.6
20260507061204 30 203 0.0 0.0 0.00 0.54 0.00 92 1018.6
20260507060705 30 203 0.0 0.0 0.00 0.54 0.00 91 1018.7
20260507055704 30 203 0.0 1.0 0.00 0.54 0.54 91 1018.7
20260507055204 30 203 0.0 2.0 0.00 0.54 0.54 91 1018.8
20260507054204 30 203 0.0 0.0 0.00 0.54 0.54 91 1018.8
20260507053703 30 203 0.0 0.0 0.00 0.54 0.54 91 1018.7
20260507053204 31 203 0.0 0.0 0.00 0.54 0.54 91 1018.8
20260507052704 31 203 0.0 0.0 0.00 0.54 0.54 91 1018.9
20260507052204 31 203 0.0 0.0 0.00 0.54 0.54 91 1019.0
20260507051204 31 203 0.0 1.0 0.00 0.54 0.54 90 1018.9
20260507050704 31 203 0.0 0.0 0.00 0.54 0.54 90 1019.1
20260507050204 31 203 0.0 0.0 0.00 0.54 0.54 90 1019.0
20260507045703 31 203 0.0 0.0 0.00 0.54 0.54 90 1019.0
20260507045204 31 203 0.0 0.0 0.00 0.54 0.54 90 1019.0
20260507044703 31 203 0.0 0.0 0.00 0.54 0.54 90 1019.0
20260507044204 31 203 0.0 0.0 0.00 0.54 0.54 90 1019.1
20260507043704 31 203 0.0 0.0 0.00 0.54 0.54 89 1019.0
20260507042703 32 203 0.0 1.0 0.00 0.54 0.54 89 1019.0
20260507042204 32 203 0.0 0.0 0.00 0.54 0.54 89 1019.0
20260507041704 32 203 0.0 1.0 0.00 0.54 0.54 88 1019.1
20260507041204 32 203 0.0 0.0 0.00 0.54 0.54 88 1019.1
20260507040704 32 203 0.0 1.0 0.00 0.54 0.54 88 1019.1
20260507035704 32 203 0.0 0.0 0.00 0.54 0.54 87 1019.1
20260507035204 32 203 0.0 0.0 0.00 0.54 0.54 87 1019.0
20260507034704 33 203 0.0 0.0 0.00 0.54 0.54 87 1019.0
20260507034204 33 203 0.0 0.0 0.00 0.54 0.54 86 1019.0
20260507033703 33 203 0.0 0.0 0.00 0.54 0.54 86 1019.1
20260507033203 33 203 0.0 0.0 0.00 0.54 0.54 85 1019.2
20260507032704 33 203 0.0 0.0 0.00 0.54 0.54 85 1019.0
20260507031703 34 203 0.0 0.0 0.00 0.54 0.54 84 1019.0
20260507030704 34 203 0.0 0.0 0.00 0.54 0.54 83 1019.0
20260507030203 34 203 0.0 0.0 0.00 0.55 0.54 82 1019.0
20260507025703 34 203 0.0 0.0 0.00 0.55 0.54 81 1018.9
20260507025204 35 203 0.0 0.0 0.00 0.55 0.54 81 1018.9
20260507024704 35 203 0.0 0.0 0.00 0.55 0.54 81 1018.9
20260507024204 35 203 0.0 0.0 0.00 0.55 0.54 80 1018.9
20260507023704 35 203 0.0 0.0 0.00 0.55 0.54 80 1018.8
20260507023203 36 203 0.0 0.0 0.00 0.55 0.54 79 1018.8
20260507022704 36 203 0.0 0.0 0.00 0.55 0.54 79 1018.8
20260507022203 36 203 0.0 0.0 0.00 0.55 0.54 78 1018.7
20260507021704 37 203 0.0 0.0 0.00 0.55 0.54 78 1018.7
20260507021204 37 203 0.0 0.0 0.00 0.55 0.54 77 1018.7
20260507020704 37 203 0.0 0.0 0.00 0.55 0.54 77 1018.7
20260507020203 38 203 0.0 0.0 0.00 0.55 0.54 77 1018.7
20260507015703 38 203 0.0 1.0 0.00 0.55 0.54 76 1018.6
20260507015204 38 203 0.0 2.0 0.00 0.55 0.54 76 1018.6
20260507014704 38 203 0.0 3.0 0.01 0.55 0.54 76 1018.6
20260507014204 39 203 0.0 2.0 0.01 0.55 0.54 75 1018.7
20260507013705 39 203 0.0 3.0 0.01 0.55 0.54 75 1018.8
20260507013204 39 203 1.0 3.0 0.02 0.55 0.54 74 1018.8
20260507012705 39 188 1.0 3.0 0.02 0.55 0.54 74 1018.9
20260507012204 39 210 1.0 3.0 0.02 0.55 0.54 73 1018.9
20260507011704 40 200 1.0 3.0 0.02 0.56 0.54 73 1018.9
20260507011204 40 178 0.0 5.0 0.02 0.56 0.54 73 1018.9
20260507010705 40 178 0.0 2.0 0.03 0.56 0.54 72 1019.0
20260507010205 40 178 1.0 5.0 0.03 0.56 0.54 72 1019.0
20260507005705 41 180 0.0 2.0 0.04 0.56 0.54 71 1019.0
20260507005204 41 180 1.0 5.0 0.04 0.56 0.54 71 1019.0
20260507004705 41 187 2.0 6.0 0.03 0.55 0.53 70 1019.1
20260507004205 41 188 1.0 3.0 0.04 0.55 0.53 70 1019.1
20260507003705 42 203 2.0 6.0 0.05 0.55 0.53 70 1019.1
20260507003205 42 185 2.0 7.0 0.04 0.54 0.52 70 1019.1
20260507002704 42 162 1.0 3.0 0.05 0.54 0.52 71 1019.2
20260507002204 42 180 0.0 1.0 0.06 0.54 0.52 69 1019.1
20260507001706 42 180 2.0 3.0 0.06 0.54 0.52 70 1019.2
20260507001205 42 226 1.0 3.0 0.07 0.54 0.52 70 1019.2
20260507000705 42 196 2.0 6.0 0.07 0.53 0.51 70 1019.2
20260507000205 42 174 1.0 5.0 0.08 0.53 0.51 70 1019.2
20260506235705 42 176 2.0 6.0 0.08 0.52 0.50 70 1019.2
20260506235204 42 172 1.0 5.0 0.09 0.52 0.50 69 1019.3
20260506234705 42 184 1.0 3.0 0.10 0.52 0.50 69 1019.3
20260506233705 42 157 0.0 5.0 0.10 0.50 0.48 67 1019.3
20260506233204 43 157 1.0 3.0 0.11 0.50 0.48 68 1019.2
20260506232705 43 176 2.0 5.0 0.11 0.49 0.47 69 1019.3
20260506231705 43 175 0.0 5.0 0.12 0.48 0.46 69 1019.3
20260506231205 43 213 1.0 5.0 0.11 0.47 0.45 69 1019.3
20260506230704 43 189 1.0 3.0 0.11 0.46 0.44 69 1019.4
20260506230205 43 184 1.0 2.0 0.11 0.45 0.43 70 1019.4
20260506225204 42 185 2.0 6.0 0.12 0.43 0.41 71 1019.4
20260506224705 42 172 1.0 3.0 0.12 0.42 0.40 73 1019.4
20260506223205 40 190 1.0 3.0 0.14 0.39 0.37 76 1019.6
20260506222704 40 178 0.0 3.0 0.15 0.38 0.36 75 1019.6
20260506222205 40 101 0.0 3.0 0.16 0.37 0.35 74 1019.8
20260506221205 40 122 1.0 3.0 0.18 0.37 0.34 74 1019.9
20260506220704 40 122 1.0 3.0 0.18 0.36 0.33 74 1020.0
20260506220205 40 122 1.0 3.0 0.18 0.35 0.32 73 1020.0
20260506215705 40 144 1.0 6.0 0.16 0.33 0.30 74 1020.1
20260506215205 40 148 1.0 3.0 0.16 0.32 0.29 74 1020.1
20260506214705 40 188 1.0 6.0 0.15 0.31 0.28 72 1020.1
20260506214204 41 90 1.0 6.0 0.14 0.29 0.26 71 1020.1
20260506213704 42 215 1.0 5.0 0.12 0.27 0.24 71 1020.2
20260506213204 42 198 0.0 2.0 0.11 0.26 0.23 74 1020.1
20260506212705 42 198 1.0 3.0 0.09 0.24 0.21 76 1020.2
20260506212204 41 198 0.0 2.0 0.08 0.22 0.19 77 1020.2
20260506211204 40 198 1.0 3.0 0.06 0.19 0.16 80 1020.3
20260506210704 40 198 0.0 2.0 0.05 0.18 0.15 81 1020.4
20260506210204 39 198 0.0 3.0 0.04 0.17 0.14 82 1020.4
20260506205204 39 198 0.0 3.0 0.04 0.16 0.13 84 1020.6
20260506204705 39 198 0.0 0.0 0.05 0.16 0.13 84 1020.6
20260506204204 38 198 0.0 1.0 0.04 0.16 0.12 85 1020.7
20260506203205 38 198 1.0 3.0 0.05 0.16 0.12 86 1020.8
20260506202706 38 198 0.0 2.0 0.05 0.16 0.12 85 1020.9
20260506202205 38 198 0.0 1.0 0.05 0.15 0.11 87 1020.9
20260506201705 38 198 1.0 2.0 0.05 0.15 0.11 88 1020.9
20260506201204 38 198 0.0 3.0 0.04 0.14 0.10 89 1020.9
20260506200704 38 198 1.0 3.0 0.04 0.14 0.10 89 1020.9
20260506200204 38 198 0.0 0.0 0.04 0.14 0.10 90 1021.0
20260506195204 37 198 0.0 1.0 0.04 0.13 0.09 91 1020.9
20260506194705 37 198 1.0 3.0 0.03 0.12 0.08 91 1021.0
20260506194204 37 186 0.0 3.0 0.04 0.12 0.08 92 1021.0
20260506193704 36 184 1.0 2.0 0.04 0.12 0.08 92 1021.1
20260506193204 36 47 0.0 2.0 0.03 0.11 0.07 92 1021.2
20260506192705 36 47 1.0 3.0 0.03 0.11 0.07 92 1021.2
20260506192205 36 47 1.0 3.0 0.03 0.10 0.06 92 1021.2
20260506191204 36 47 0.0 1.0 0.03 0.10 0.06 93 1021.2
20260506185704 36 47 0.0 2.0 0.02 0.09 0.05 94 1021.4
20260506185204 36 47 1.0 3.0 0.02 0.09 0.05 94 1021.5
20260506184704 36 47 0.0 3.0 0.03 0.09 0.05 94 1021.5
20260506184204 35 47 1.0 2.0 0.02 0.08 0.04 94 1021.5
20260506183705 35 47 1.0 2.0 0.02 0.08 0.04 95 1021.5
20260506183204 35 47 1.0 3.0 0.02 0.08 0.04 95 1021.6
20260506182705 34 47 0.0 3.0 0.02 0.08 0.04 95 1021.7
20260506182204 34 47 1.0 3.0 0.01 0.07 0.03 95 1021.7
20260506181704 34 91 2.0 3.0 0.01 0.07 0.03 95 1021.7
20260506181204 34 68 3.0 9.0 0.01 0.07 0.03 94 1021.6
20260506180204 34 61 2.0 8.0 0.01 0.07 0.03 95 1021.6
20260506175704 34 45 3.0 6.0 0.01 0.07 0.03 95 1021.6
20260506175204 34 71 3.0 7.0 0.01 0.07 0.03 95 1021.6
20260506174705 33 4 2.0 8.0 0.00 0.06 0.02 95 1021.6
20260506174204 33 40 3.0 8.0 0.00 0.06 0.02 95 1021.6
20260506173705 33 66 3.0 8.0 0.00 0.06 0.02 95 1021.6
20260506173204 33 59 4.0 9.0 0.00 0.06 0.02 95 1021.6
20260506172704 33 28 2.0 3.0 0.01 0.06 0.02 95 1021.5
20260506172204 32 49 2.0 6.0 0.01 0.06 0.02 95 1021.5
20260506171704 33 42 3.0 9.0 0.01 0.06 0.02 95 1021.5
20260506171204 33 3 3.0 6.0 0.01 0.06 0.02 95 1021.4
20260506170704 33 53 6.0 10.0 0.01 0.06 0.02 95 1021.4
20260506170204 33 349 1.0 5.0 0.01 0.06 0.02 95 1021.3
20260506165704 33 29 2.0 7.0 0.01 0.06 0.02 95 1021.1
20260506165205 33 354 2.0 8.0 0.01 0.06 0.02 95 1021.1
20260506164704 33 2 2.0 9.0 0.01 0.06 0.02 95 1021.0